Theta_e
312 312 312 312 312 312 311 311 311 309 309 306 302 303 295 295 294 304 309 308 304 297 289 294 292 289 293 297 295 294 293 292 294 293 293 291 293 291 290 290 288 290 289 289 288 290 288 289 288 290 291 292 295 297 297 297 296 296 292 294 296 305 295 292 294 298 302 305 307 306 308 307 304 303 301 302 300 299 297 294 292 293 294 292 291 291 294
312 312 312 312 312 312 311 311 311 310 309 306 304 298 295 295 296 300 308 307 303 295 286 287 289 291 294 294 293 297 294 293 292 292 292 292 291 289 290 292 294 289 292 290 288 292 284 291 290 289 293 291 298 297 297 298 293 293 292 290 297 290 292 290 287 289 293 297 300 301 305 306 303 302 302 302 303 302 298 299 297 294 294 293 289 287 294
311 312 312 312 312 312 311 311 311 311 310 310 304 296 297 296 299 300 301 305 301 292 293 291 289 290 290 292 291 292 293 297 294 293 291 293 292 291 290 292 292 291 292 290 291 292 291 288 293 293 293 292 298 297 297 297 294 297 298 303 302 292 290 288 284 285 285 285 286 289 294 300 303 304 303 302 302 300 298 294 294 288 295 296 291 291 296
311 311 312 312 312 311 311 311 311 311 311 310 305 300 297 294 286 294 295 298 298 297 298 295 292 290 291 290 292 292 290 294 298 295 293 294 293 291 294 293 293 291 290 288 288 288 292 289 289 290 290 293 295 297 297 297 296 300 304 303 299 291 292 291 290 289 289 292 295 301 304 302 299 301 303 302 302 302 301 297 292 291 291 295 294 297 297
311 311 312 312 311 311 311 311 311 311 311 311 305 302 298 298 289 290 287 293 294 292 294 292 293 290 294 287 291 289 291 292 294 299 290 294 292 292 291 291 289 289 289 287 287 289 289 291 290 289 290 292 294 297 297 297 299 304 301 302 297 292 288 289 292 294 294 297 298 302 305 301 302 301 301 303 301 300 299 296 295 296 295 288 296 299 299
311 312 311 312 312 311 311 311 311 311 310 310 306 296 298 287 292 296 295 288 285 287 288 292 292 294 294 290 293 290 289 290 288 294 296 294 294 289 292 292 292 291 289 288 285 287 288 289 287 291 292 291 294 293 296 296 300 300 296 300 295 290 286 291 292 291 293 295 296 300 304 304 303 303 302 301 302 300 298 298 298 300 295 293 298 300 299
312 312 311 312 312 311 311 311 310 310 309 308 302 295 299 297 297 296 298 289 291 290 291 293 293 291 292 291 292 289 289 288 291 291 290 292 290 293 284 288 289 290 292 289 285 287 283 284 290 289 290 290 290 289 292 297 299 297 295 296 297 292 287 291 292 290 291 295 299 305 305 304 303 302 303 303 302 301 300 300 301 302 300 300 301 302 301
311 311 311 311 312 312 311 311 311 310 308 308 301 300 294 293 293 292 298 295 292 291 292 293 291 289 293 289 290 291 290 289 291 292 290 286 289 293 288 288 290 290 290 289 286 289 290 289 286 291 291 290 292 290 291 292 297 295 292 293 298 291 288 295 291 288 290 300 305 306 304 302 300 301 303 303 303 302 302 301 302 306 304 305 305 303 303
312 312 312 312 312 312 311 311 311 310 309 303 301 299 301 300 303 300 293 288 291 293 292 289 289 288 290 289 291 291 291 290 292 290 293 291 289 290 288 290 290 292 291 290 289 292 292 291 291 292 292 287 293 291 292 295 290 292 291 292 293 293 288 292 289 286 288 297 299 301 304 302 300 300 302 302 300 300 301 300 302 303 301 302 303 301 302
312 312 312 313 312 312 312 312 312 310 309 305 303 297 303 302 306 304 297 288 293 289 291 290 290 286 290 291 291 291 291 293 293 288 293 295 294 293 292 291 290 288 289 288 290 293 293 293 294 294 294 295 295 296 295 295 292 291 291 293 290 291 289 287 287 284 287 293 296 297 300 298 296 297 300 306 304 304 309 312 314 313 307 302 298 299 305
312 312 312 312 312 313 313 313 313 311 310 304 302 300 302 299 298 299 298 287 290 291 290 289 288 291 291 292 291 293 292 293 293 288 288 294 294 297 294 292 289 286 287 292 296 297 297 297 297 297 296 295 294 295 296 295 295 294 292 290 291 292 291 288 289 283 286 290 294 296 295 288 290 303 306 311 310 310 309 309 311 314 316 307 306 307 309
312 312 312 312 313 313 313 313 313 312 309 309 307 303 305 305 302 299 293 286 288 292 290 287 288 290 289 291 291 290 291 292 292 294 291 292 294 296 295 293 292 285 294 299 299 298 299 299 297 297 296 296 295 295 294 293 294 297 297 292 290 290 290 287 289 285 285 290 296 295 289 291 305 307 306 307 309 313 312 311 313 314 316 317 315 310 311
312 312 312 313 313 313 313 313 313 312 311 310 308 303 307 309 302 298 295 289 285 288 287 288 291 291 292 291 291 292 294 295 295 295 295 293 292 294 296 293 292 294 299 297 297 295 291 289 291 292 292 294 295 295 295 294 293 294 295 295 292 289 289 288 287 288 290 291 290 287 290 303 303 304 305 307 308 307 311 310 312 313 315 316 315 315 314
312 313 313 313 313 313 313 313 312 313 312 310 307 307 308 307 300 298 295 288 288 291 291 290 291 290 291 291 291 292 294 293 295 295 292 294 292 293 296 298 298 300 299 299 295 292 287 288 285 287 288 291 292 290 293 295 295 294 293 295 295 293 291 289 285 291 286 288 286 289 303 302 300 299 300 302 300 302 303 304 308 313 314 316 315 317 319
312 313 313 313 313 313 313 313 313 313 313 310 309 308 307 307 305 301 300 295 288 291 292 286 289 291 291 291 293 291 290 291 291 291 293 295 294 296 296 298 301 300 299 295 289 290 288 287 284 283 285 284 281 284 293 290 296 296 296 296 296 296 290 292 286 286 291 285 286 287 291 288 293 299 303 306 307 307 307 312 307 313 314 317 316 317 319
312 312 312 313 313 313 313 313 313 313 313 311 309 307 308 309 308 306 301 295 291 285 289 293 294 293 291 292 293 291 289 289 291 291 290 291 293 296 298 300 300 300 298 296 291 289 288 284 283 282 281 283 287 286 285 291 291 295 296 297 296 296 298 292 288 286 287 288 285 284 285 291 296 298 302 306 307 307 308 310 304 312 313 316 317 317 319
312 312 312 312 313 313 313 313 313 313 313 311 307 308 306 311 307 304 300 298 294 288 298 297 297 296 293 291 293 292 294 291 292 287 286 287 291 293 296 299 300 299 296 293 290 287 284 285 286 285 286 289 284 284 290 288 287 290 294 295 294 293 293 293 287 286 287 288 286 284 289 287 297 301 304 306 307 309 308 300 299 309 312 314 315 316 318
312 312 312 313 313 313 313 313 313 313 312 312 309 307 307 311 310 307 302 298 293 292 297 299 296 293 291 292 291 295 296 295 294 294 289 291 292 292 294 296 293 298 298 290 290 285 285 285 282 283 282 290 291 290 281 287 285 287 289 290 289 290 289 290 285 286 287 288 287 293 291 298 301 303 304 306 308 310 298 292 303 313 314 312 313 315 318
312 312 313 313 313 314 314 313 314 313 313 312 310 309 307 310 310 308 303 299 296 290 298 301 301 297 299 300 297 297 297 295 295 290 288 288 291 296 296 296 297 288 294 288 290 286 285 285 291 287 284 286 290 284 290 286 286 291 291 289 289 290 291 290 291 287 286 286 286 287 293 299 302 304 306 308 306 295 295 308 316 315 313 313 312 313 316
312 312 312 313 313 313 313 314 314 313 313 313 310 305 308 311 311 309 302 297 298 295 299 300 300 297 301 297 295 294 295 295 297 293 291 287 294 296 293 289 292 293 289 290 285 288 286 283 285 289 285 286 288 292 288 289 293 290 290 293 289 289 289 286 287 291 291 291 290 288 283 295 303 305 304 307 300 302 312 314 313 316 315 311 311 312 313
312 312 313 313 313 313 313 313 313 313 313 313 311 306 305 310 311 311 309 304 298 294 295 304 304 301 301 299 299 299 297 293 293 290 295 294 297 294 284 284 289 290 286 288 282 285 287 285 287 286 291 289 290 291 284 286 289 294 293 291 292 295 289 286 290 297 288 288 287 287 297 300 306 303 296 303 307 315 317 315 310 314 314 311 310 311 312
312 312 313 313 313 313 313 313 313 313 313 313 312 308 303 308 312 312 311 308 300 297 299 304 305 303 304 304 303 303 301 300 301 300 296 294 297 294 293 295 294 293 293 294 290 290 291 290 291 288 285 288 292 287 290 285 283 290 295 293 286 295 293 294 286 295 292 290 294 299 301 305 309 308 305 310 309 313 314 311 310 311 312 314 311 311 312
312 312 313 313 313 313 313 313 313 313 312 313 311 307 303 307 309 313 310 302 305 305 306 303 304 304 306 307 308 307 305 305 304 302 301 296 292 293 293 293 293 297 295 296 290 290 290 290 287 291 288 291 288 287 289 289 286 290 287 294 293 297 299 297 298 295 298 300 302 300 299 301 309 311 310 310 312 313 315 314 311 311 313 314 311 313 313
312 312 313 313 313 313 313 313 313 313 312 312 311 307 305 307 309 309 306 304 301 295 297 300 295 293 297 299 305 308 308 306 306 304 305 302 291 291 296 300 299 301 296 298 300 293 291 291 291 292 286 291 292 287 284 284 287 291 290 289 293 295 298 295 292 295 291 288 298 297 298 300 302 303 306 307 309 311 312 314 315 314 314 311 314 313 313
312 312 312 313 313 313 313 313 313 312 312 312 312 312 309 307 309 308 303 296 296 294 289 293 294 300 304 306 307 305 306 308 309 307 306 304 300 295 293 298 300 295 293 295 299 296 294 289 289 290 286 292 293 285 291 287 287 293 287 289 291 290 300 294 294 293 291 292 298 299 300 301 304 303 304 304 304 307 307 309 313 315 317 315 313 315 312
312 312 312 313 313 313 313 312 312 312 312 311 311 307 306 306 311 310 307 305 303 299 290 288 293 303 306 305 303 304 307 308 307 307 306 305 305 303 301 301 300 304 300 302 299 294 291 290 291 291 288 289 296 288 288 292 291 294 290 289 295 296 299 290 293 291 294 297 299 298 299 300 301 302 304 303 304 304 307 306 311 309 311 313 313 312 315
312 312 312 312 312 312 312 312 312 312 311 311 310 308 308 309 312 309 305 303 296 292 293 287 292 299 304 301 305 307 307 305 304 303 303 305 304 304 303 301 300 298 297 295 297 295 293 291 290 289 292 291 295 292 293 291 291 289 288 293 299 295 290 293 292 288 288 290 293 296 291 291 296 299 301 303 304 305 304 307 307 311 311 310 310 312 314
311 312 312 312 312 312 312 311 311 312 310 311 310 309 310 309 312 312 311 308 299 291 291 290 291 296 303 300 306 305 306 305 302 302 302 302 303 302 301 300 298 297 296 293 290 291 290 289 287 294 296 296 292 289 295 294 294 289 290 292 296 292 293 291 288 288 287 293 295 297 297 296 297 299 301 302 303 303 304 304 306 308 311 311 308 307 307
311 312 312 311 311 312 311 311 311 312 311 310 308 308 309 311 314 314 312 312 305 298 294 296 298 295 292 298 306 304 305 305 303 302 301 302 303 302 301 301 299 299 298 296 294 293 291 292 296 293 293 297 294 290 291 285 285 283 289 293 295 296 296 294 294 293 294 296 296 296 295 293 296 298 300 300 302 302 303 304 306 308 310 310 311 308 307
311 311 311 311 311 311 311 311 311 311 311 309 309 307 304 306 313 311 312 312 308 302 293 290 286 292 303 304 303 306 306 307 305 305 304 302 302 302 302 301 301 303 300 297 295 291 293 293 296 298 299 302 293 290 288 288 286 288 294 295 295 296 296 296 296 293 292 296 296 296 296 296 298 299 300 301 302 303 302 303 305 308 310 311 310 309 309
311 311 311 311 311 311 311 311 311 311 309 307 307 302 297 292 301 312 313 312 307 301 295 295 290 298 297 304 306 304 306 307 305 304 304 304 305 304 305 305 304 304 297 297 295 294 295 292 293 295 299 301 296 290 288 288 286 288 293 294 295 294 294 294 296 296 296 296 297 297 297 297 298 298 298 299 300 302 303 306 310 312 310 312 310 309 308
311 311 311 311 310 310 311 311 312 310 307 306 302 300 299 300 304 310 312 312 308 300 294 289 289 290 292 301 307 308 306 306 306 308 307 308 304 307 304 304 301 303 299 296 296 294 293 294 292 293 292 297 297 291 291 289 286 288 294 294 295 295 295 294 295 296 297 298 297 295 295 296 297 296 296 299 301 303 303 304 306 306 310 310 309 310 311
311 310 310 310 310 311 311 312 312 310 307 307 309 309 308 309 310 311 313 308 304 299 299 291 286 291 291 295 304 306 308 306 303 302 299 305 302 306 301 303 303 301 305 297 290 289 295 295 294 291 294 298 293 291 289 287 289 293 294 295 295 295 295 296 296 297 297 298 297 293 293 295 297 298 299 300 301 301 301 302 304 305 305 305 306 305 306
310 310 309 310 311 311 311 310 310 311 310 308 305 304 307 308 310 310 310 308 303 302 299 292 288 287 289 300 293 300 310 299 297 299 295 303 304 302 298 299 299 294 297 294 296 295 296 296 292 292 295 292 294 289 284 288 292 292 293 294 295 295 295 295 297 297 298 299 301 300 299 299 300 300 300 299 299 301 302 302 303 302 303 303 304 305 305
310 309 310 311 311 312 312 311 308 308 305 307 306 307 310 310 309 311 312 305 296 294 294 293 291 284 286 290 290 294 306 302 296 299 295 298 305 298 299 295 297 292 294 303 295 294 292 293 296 290 287 293 290 285 286 289 290 293 295 296 296 295 296 295 296 298 299 301 301 302 303 303 301 299 299 299 299 300 300 301 302 302 301 302 303 303 303
310 310 311 312 312 312 310 310 307 307 306 307 306 313 314 315 314 311 308 308 302 295 292 291 292 288 290 285 285 296 310 301 302 301 300 301 299 303 300 296 288 294 300 296 290 294 291 298 294 286 292 288 286 287 289 293 293 295 296 296 297 296 296 296 296 298 299 300 301 303 305 305 302 301 300 300 300 300 300 301 301 302 301 302 302 303 304
310 311 311 310 309 310 305 306 311 310 307 308 312 315 315 313 315 310 308 305 305 306 296 291 288 288 291 291 294 299 304 294 301 299 300 297 294 300 296 293 289 296 296 292 293 291 295 301 293 285 285 286 288 295 296 297 296 296 297 298 299 299 299 298 299 299 298 299 300 301 302 304 304 302 301 300 300 301 300 300 301 301 300 301 302 304 303
310 310 307 307 307 304 305 307 308 309 315 313 314 307 304 307 298 301 301 299 301 305 297 296 287 292 297 294 289 299 301 296 301 295 294 299 295 293 299 295 295 296 285 287 292 299 296 294 290 286 286 293 295 296 298 299 300 300 300 300 300 300 300 300 299 297 296 295 296 298 300 301 302 304 302 301 301 301 301 302 303 303 303 304 303 305 306
309 307 308 310 307 304 306 308 312 315 310 311 310 305 300 302 298 296 297 297 299 294 298 295 291 295 295 293 294 302 301 298 296 295 289 296 295 290 297 288 293 295 285 287 292 301 287 287 290 287 285 292 293 296 300 300 301 301 302 301 301 300 301 300 300 298 296 296 297 299 299 299 300 303 305 304 303 304 303 303 303 304 304 303 304 305 305
311 308 306 306 306 307 310 312 315 311 309 305 306 303 299 300 293 290 302 292 292 299 300 292 298 300 300 297 296 294 305 301 294 291 292 294 302 290 294 293 292 288 280 282 287 299 287 284 288 287 285 290 293 298 299 300 300 301 302 302 302 302 301 300 300 301 300 299 300 300 301 302 303 303 306 307 305 303 303 304 304 305 304 304 306 305 304
312 311 310 307 310 307 307 308 309 307 306 304 305 305 301 290 299 301 299 292 292 295 303 300 301 300 303 304 301 294 302 309 303 301 297 290 299 299 290 285 297 288 283 280 291 295 291 287 286 285 286 292 295 297 299 300 300 302 302 302 302 301 301 300 300 300 300 299 299 299 300 301 302 303 304 308 307 305 305 305 305 305 305 304 306 307 306
312 310 309 311 311 310 308 306 305 303 306 305 296 287 292 297 300 297 298 289 292 299 300 302 296 297 299 302 300 302 302 307 305 303 296 290 297 291 286 290 293 281 280 287 297 292 289 284 285 284 290 294 297 298 298 298 300 300 301 302 302 301 300 299 299 300 300 299 299 299 299 300 300 301 303 306 311 309 306 306 307 306 306 306 306 306 307
309 308 308 308 310 308 308 297 303 303 286 287 286 284 291 286 290 292 293 301 303 300 300 309 305 307 304 308 302 305 301 307 301 299 295 291 298 298 288 284 283 279 283 294 289 284 284 284 284 287 292 295 297 298 298 298 299 301 301 302 302 301 301 299 299 299 300 300 299 299 299 299 299 300 302 304 307 311 312 310 308 307 306 306 306 307 308
310 311 310 310 304 308 305 287 301 300 289 288 286 284 289 287 290 294 292 293 297 297 301 299 300 300 296 304 300 300 303 303 305 300 297 299 297 291 287 281 282 290 296 287 284 282 285 287 289 292 294 296 298 298 297 297 297 300 300 301 302 302 301 300 299 298 298 299 299 299 299 299 299 300 300 301 304 305 308 310 312 313 313 312 308 306 308
310 303 295 292 290 295 291 285 292 289 286 288 291 290 291 289 291 292 291 298 300 298 302 302 301 300 299 303 303 303 302 298 304 296 292 298 293 291 287 284 291 292 286 283 286 286 287 286 293 294 294 294 295 296 297 297 296 298 299 300 301 301 301 299 298 298 298 298 298 299 298 298 298 298 299 299 301 303 304 306 308 309 308 307 307 308 312
307 296 293 288 288 288 288 286 286 285 293 295 292 292 292 294 295 294 298 301 297 297 297 299 302 302 300 302 298 297 301 300 296 298 299 296 289 284 290 294 293 285 285 286 284 283 285 287 292 293 295 295 296 296 297 297 296 297 300 299 300 301 301 300 299 298 298 298 299 299 298 298 297 297 298 299 299 300 302 304 306 307 307 306 306 306 306
297 301 293 289 287 287 295 289 290 294 295 296 296 295 295 296 299 298 300 300 298 299 300 301 302 303 298 299 300 298 300 300 296 296 297 290 289 290 295 288 281 283 282 283 284 285 286 291 294 295 296 297 296 297 297 297 296 296 298 300 300 300 301 301 300 299 299 299 299 298 298 299 298 298 298 298 298 299 301 302 302 304 304 304 305 306 306
294 296 292 286 285 289 288 292 298 297 298 298 297 297 298 299 296 296 299 299 299 301 300 301 298 296 297 302 300 295 296 296 293 290 295 293 293 288 281 284 282 286 287 285 285 290 292 295 296 297 298 298 296 296 296 297 296 295 296 298 299 300 300 300 300 300 300 299 299 298 298 299 299 299 298 298 298 298 299 300 301 302 302 302 302 302 302
302 291 288 286 293 294 293 296 295 293 295 297 297 296 297 297 296 297 300 300 300 300 301 299 297 297 291 295 294 293 289 293 287 286 292 289 284 281 283 281 283 284 289 291 290 294 295 297 299 300 298 297 297 297 296 297 297 296 296 297 299 299 300 300 301 301 301 301 300 300 299 300 299 299 299 299 297 298 299 299 299 300 300 301 301 301 301
294 291 296 290 294 293 296 296 294 291 293 294 294 294 296 296 295 297 301 300 301 300 299 299 299 293 292 292 284 288 289 292 291 288 287 286 289 290 287 284 285 284 287 292 294 296 298 299 299 298 297 297 299 297 296 297 299 299 297 298 299 300 299 299 300 301 301 301 301 301 301 301 300 299 299 299 300 300 300 299 299 298 299 300 300 299 300
297 291 292 299 295 294 295 291 290 290 291 294 295 296 297 296 296 296 301 302 299 296 295 292 292 290 285 284 284 282 286 295 291 288 287 288 292 291 286 285 288 291 294 297 298 299 300 299 300 298 298 297 297 297 297 297 297 297 298 299 298 297 299 299 299 300 301 301 301 302 300 300 301 301 301 301 300 299 299 300 300 299 299 299 299 299 298
291 290 295 300 300 299 297 296 295 294 295 296 297 298 299 297 298 299 303 299 296 293 291 294 291 286 283 283 287 291 294 290 287 289 287 291 294 290 289 290 292 295 296 296 297 298 300 300 302 302 299 298 300 297 297 297 297 297 298 299 299 298 298 298 299 298 298 300 300 300 300 301 301 301 302 300 299 298 297 297 299 300 300 299 299 299 299
Wind_Speed
20 20 20 20 18 16 16 17 18 18 18 9 9 6 5 4 6 15 14 13 16 6 4 6 7 5 6 13 10 5 3 5 6 8 6 5 3 3 3 6 5 2 6 8 9 6 2 4 3 6 10 11 9 12 20 16 15 11 6 10 3 15 2 5 9 9 13 16 15 8 13 14 12 7 7 11 14 12 10 8 5 7 2 6 2 2 9
20 20 20 19 17 16 15 15 16 17 17 8 7 3 2 5 7 7 6 13 11 9 9 8 9 8 12 13 10 10 5 7 7 6 7 2 2 2 2 1 2 6 7 6 10 7 4 2 5 5 6 7 10 15 14 16 12 9 6 8 11 8 3 7 9 6 5 8 6 6 6 12 10 11 10 13 14 12 4 6 3 7 9 7 6 7 11
20 20 18 16 16 15 15 15 14 16 16 12 5 5 5 6 5 6 6 9 7 10 6 6 6 9 11 10 10 14 7 1 3 6 6 4 3 3 1 2 4 5 4 9 9 8 2 4 5 9 8 10 10 11 14 18 14 10 13 17 9 5 9 4 4 2 7 7 7 5 3 12 10 10 14 14 16 15 7 8 3 7 5 6 4 6 12
20 19 17 16 15 14 15 15 14 15 14 13 7 5 4 3 5 2 4 6 2 6 7 6 6 7 10 11 8 11 9 8 4 6 3 4 6 2 2 1 2 3 7 7 8 11 5 3 4 6 7 9 5 10 18 15 14 16 16 9 6 5 7 8 10 9 8 7 6 11 9 10 12 15 18 14 12 15 11 6 6 9 4 8 7 11 9
19 19 17 16 14 13 14 14 15 14 14 12 6 5 3 3 2 6 6 4 5 8 8 9 8 7 9 4 7 10 11 10 3 3 2 3 4 3 1 1 2 3 6 5 8 7 9 6 8 7 9 9 10 13 15 15 13 12 7 10 5 2 8 10 11 11 14 16 17 19 14 13 15 16 16 13 13 12 14 10 9 6 8 8 6 7 6
19 19 18 16 13 13 13 13 14 14 14 12 4 3 2 2 2 5 2 3 5 10 9 10 10 10 9 5 5 6 10 11 9 7 3 9 2 4 0 2 3 5 5 7 6 7 7 6 8 6 5 10 10 12 9 11 5 14 8 7 3 6 5 10 13 20 20 18 17 16 12 9 11 16 17 17 15 12 16 12 6 9 7 9 8 5 6
19 18 19 17 14 12 12 12 12 14 13 9 0 2 2 3 3 2 7 4 5 5 10 12 10 11 8 4 4 7 9 10 9 7 8 7 5 3 4 3 6 6 3 2 4 3 6 4 4 4 6 8 9 7 13 2 8 11 12 8 2 5 6 9 15 21 22 16 12 9 7 9 12 8 17 17 16 15 13 9 5 11 6 9 10 7 9
19 19 18 16 14 12 11 11 11 12 12 7 4 1 3 3 4 3 2 1 5 6 5 5 8 7 8 4 4 7 8 10 12 10 8 7 6 5 8 10 8 4 4 2 4 4 4 9 12 7 5 8 3 3 3 11 10 8 11 9 1 4 6 14 16 13 13 8 9 10 9 7 9 3 14 17 18 15 11 8 7 3 3 1 4 5 1
18 18 19 17 15 12 11 10 9 10 6 4 1 5 1 2 1 1 4 5 3 4 2 4 5 6 5 2 6 7 8 10 8 9 9 6 8 10 13 14 12 3 3 3 6 5 7 11 14 14 10 9 3 4 3 3 13 13 9 7 8 4 6 10 9 11 9 10 15 14 13 5 8 16 11 1 10 16 10 3 2 3 3 6 8 4 2
19 19 18 18 15 13 11 10 10 9 3 3 2 4 2 3 0 2 1 4 3 4 3 3 4 3 2 5 8 7 10 12 5 7 4 7 8 10 10 11 6 3 3 6 6 10 13 15 16 14 13 10 7 8 9 8 9 7 9 10 10 2 6 9 10 11 6 11 15 14 15 5 15 15 16 12 10 16 13 14 17 13 2 9 6 5 6
19 19 18 17 16 15 14 12 11 9 4 3 3 3 3 2 3 2 1 4 2 4 2 2 3 3 7 8 11 9 10 12 5 3 5 7 9 8 7 8 4 6 4 4 8 10 14 14 14 12 12 12 11 8 9 14 12 10 10 9 7 6 4 7 6 5 10 14 16 15 6 9 4 1 12 13 14 17 21 12 14 17 11 2 3 5 2
19 19 18 18 17 16 14 14 12 10 5 4 4 5 4 3 3 3 4 3 4 1 1 4 3 7 9 11 9 12 12 11 11 6 10 9 13 11 6 8 3 5 4 8 10 10 13 13 13 11 11 11 11 12 14 16 14 10 10 12 11 11 7 7 4 5 8 11 10 2 2 4 0 1 12 15 10 15 19 21 20 18 21 20 15 11 10
19 19 19 18 17 15 14 13 11 10 8 5 4 7 2 3 3 2 2 3 5 1 4 4 3 8 10 12 12 10 10 10 8 10 11 9 11 8 2 4 7 8 11 11 11 11 9 7 8 8 10 10 10 10 12 15 16 15 11 13 12 11 6 5 4 5 6 3 5 3 5 4 5 1 11 21 10 15 13 19 21 20 18 16 12 10 7
20 19 18 17 16 16 15 14 11 9 10 6 5 5 4 4 4 3 3 1 4 4 5 8 7 9 7 7 8 11 10 8 6 6 8 7 10 9 10 6 7 11 11 9 7 5 4 2 4 6 8 6 3 5 9 13 14 15 16 16 14 13 6 2 7 3 2 4 5 4 8 5 10 12 17 16 10 13 8 11 12 17 17 16 13 10 11
19 19 18 17 17 16 15 13 11 10 10 7 4 5 6 5 5 3 2 2 5 3 3 5 4 5 6 8 7 8 8 5 7 6 8 10 7 6 10 11 12 12 11 6 3 2 2 3 3 5 3 4 4 3 6 3 8 15 15 15 12 5 5 1 4 4 5 7 7 4 2 3 7 11 15 13 11 11 12 1 11 17 18 16 13 12 12
19 19 18 17 17 16 15 14 11 10 10 8 4 6 6 6 5 5 3 3 2 4 5 10 8 6 5 6 7 9 8 6 3 4 6 3 5 11 8 9 12 10 4 3 2 3 4 2 4 4 3 5 5 4 4 5 5 7 13 11 13 9 7 5 4 7 8 5 1 2 1 2 6 18 20 22 16 12 8 3 12 13 17 16 14 13 13
19 19 18 17 17 16 16 15 13 10 10 7 4 3 5 3 4 4 3 2 3 6 1 1 3 3 4 7 4 3 2 4 2 4 5 6 8 9 10 11 9 6 8 3 4 4 5 2 3 3 2 4 5 5 6 4 4 6 2 12 9 7 4 1 2 5 5 2 2 0 1 2 14 19 20 22 19 12 5 8 5 11 15 15 14 15 15
19 19 18 18 17 17 17 15 15 13 10 8 4 3 4 2 5 3 4 3 3 4 4 7 7 3 4 3 5 5 5 3 0 1 2 4 5 4 9 8 8 6 7 3 3 2 1 1 4 3 3 4 7 5 4 7 5 5 6 4 3 2 4 3 6 6 6 5 2 2 2 4 13 18 22 22 17 3 11 8 3 8 12 13 13 15 13
19 19 18 18 17 17 16 15 14 13 12 9 5 5 5 5 4 5 2 3 3 4 2 3 5 7 5 4 6 6 5 6 5 4 4 4 0 6 11 3 4 6 6 5 2 2 4 3 2 2 3 5 4 5 5 5 6 6 10 10 7 7 5 3 5 6 5 4 1 2 4 1 15 18 18 16 3 10 9 3 3 6 10 10 12 15 14
19 19 18 18 17 17 17 16 15 13 12 10 3 4 4 2 5 7 6 3 2 6 4 5 6 10 5 6 6 5 4 5 2 2 2 4 3 9 5 2 3 2 4 3 3 2 2 5 4 2 3 4 5 7 3 5 6 7 6 5 6 5 2 4 5 5 3 4 4 5 5 7 17 20 10 21 9 4 3 1 6 5 8 9 11 12 14
19 19 18 17 17 16 16 15 14 12 11 10 4 3 3 3 5 6 6 4 1 4 5 3 4 8 6 7 8 8 7 7 3 2 3 3 3 3 4 4 6 3 3 4 5 4 3 5 5 3 2 3 5 4 7 6 6 9 10 4 5 7 3 2 3 2 3 4 6 4 2 3 7 11 7 8 4 3 2 0 5 6 8 9 9 11 12
19 18 18 17 17 16 15 13 12 11 9 8 4 1 3 2 3 4 6 5 4 5 4 3 2 5 7 8 8 8 9 9 8 6 4 4 1 2 3 3 2 0 1 1 1 2 1 2 3 4 5 4 3 5 8 4 6 9 7 7 3 8 4 0 1 5 1 2 4 4 2 4 1 2 2 6 8 7 8 7 6 6 6 8 10 11 12
19 18 17 17 16 15 14 13 11 9 8 7 4 2 3 1 1 1 3 5 3 3 3 4 4 7 8 10 13 12 10 9 8 6 5 3 3 1 3 1 3 2 1 2 1 2 4 2 3 3 4 3 7 6 6 4 2 7 9 6 1 6 2 4 2 4 4 3 2 11 11 7 3 4 8 8 11 9 5 7 6 8 5 7 10 10 11
18 17 17 17 16 15 14 13 12 9 7 6 4 3 3 2 1 1 1 1 1 3 4 2 1 4 2 6 6 7 8 8 9 8 6 5 3 3 0 2 3 2 2 5 5 2 2 1 4 2 3 4 6 4 6 5 4 7 7 7 5 5 6 7 7 9 6 1 10 12 10 10 9 10 12 10 9 10 11 7 5 7 7 6 8 8 10
18 17 17 17 17 16 14 12 10 8 6 5 5 3 3 2 2 4 2 1 1 1 1 4 5 10 9 9 7 2 7 9 7 7 8 7 7 5 3 4 3 3 4 5 1 1 0 1 3 2 5 3 6 5 3 3 4 4 6 4 8 5 8 2 10 9 4 5 7 11 14 5 3 8 8 11 12 13 14 12 6 4 3 3 4 5 6
17 17 18 17 16 15 14 12 9 6 3 4 5 2 1 2 1 3 2 1 1 0 1 3 6 7 4 6 3 2 6 10 10 12 11 11 11 10 8 3 3 1 1 2 2 3 2 1 2 1 1 2 4 2 2 2 7 7 3 3 6 6 7 6 9 4 7 7 8 18 18 11 5 9 7 7 9 10 10 13 11 7 6 5 6 5 3
18 17 16 16 14 13 12 11 8 5 4 4 2 2 2 2 2 5 4 2 1 1 1 3 5 6 4 8 8 4 4 6 5 3 5 9 10 9 6 2 2 2 4 3 3 1 1 1 3 3 2 1 3 3 2 5 3 5 3 2 8 7 9 9 9 8 5 2 8 12 8 9 14 18 14 11 12 11 11 7 12 11 6 6 7 5 4
18 18 17 16 14 13 12 10 8 6 4 4 4 3 3 3 3 5 4 1 1 2 1 3 5 8 8 4 4 3 4 3 3 4 2 3 2 3 4 6 4 4 3 1 3 3 2 5 4 3 2 2 5 3 2 5 3 2 1 4 6 7 6 9 8 7 11 11 9 4 5 12 14 16 18 15 12 12 11 10 6 10 9 7 8 10 6
20 18 17 15 13 13 11 8 6 5 1 3 1 2 3 5 5 5 5 2 0 0 2 4 4 2 3 6 6 3 1 5 4 3 3 4 5 6 5 4 5 2 1 2 1 1 1 3 3 3 2 5 3 4 6 4 5 3 5 7 9 7 8 7 7 12 14 11 9 6 8 12 16 15 16 17 12 10 13 11 9 6 7 7 5 8 9
19 18 17 14 11 10 8 6 5 2 2 3 1 1 1 1 2 4 5 4 4 1 0 2 3 2 3 2 6 8 5 6 6 9 9 6 6 4 4 4 3 2 2 2 1 1 0 2 2 3 3 4 2 3 2 4 5 4 3 9 13 13 12 9 6 8 14 15 13 13 12 15 15 15 16 16 14 11 11 12 9 4 3 6 4 4 7
19 17 15 11 9 7 6 5 3 3 2 2 1 1 1 1 1 1 5 4 3 2 1 0 3 4 5 1 4 7 5 5 5 6 6 5 4 4 2 2 3 2 2 1 1 1 1 1 2 2 3 2 3 2 5 6 6 6 9 14 13 14 14 15 13 12 13 16 15 14 14 15 13 12 17 16 14 11 11 9 6 6 9 6 4 6 7
16 14 12 10 8 6 3 1 2 2 2 2 1 0 1 2 2 5 5 3 4 1 0 2 3 2 1 1 2 3 4 5 3 2 2 2 3 2 5 4 2 2 2 1 0 1 1 2 1 3 2 5 4 1 3 4 6 10 16 16 14 12 13 15 16 17 16 15 15 17 17 13 8 13 11 4 4 4 4 4 4 4 7 7 6 6 8
14 12 10 9 6 4 3 2 2 3 2 3 4 3 6 7 7 6 5 3 2 1 0 1 1 2 1 0 0 2 1 1 4 2 2 4 2 2 2 2 2 2 5 2 3 1 2 1 1 1 2 2 1 1 1 1 5 13 16 15 14 14 16 16 16 15 14 14 11 13 17 17 8 8 8 9 10 8 8 9 8 7 8 8 8 9 7
12 11 9 7 5 2 2 2 1 6 3 1 1 1 2 3 3 2 3 1 1 1 1 0 2 2 2 1 2 3 1 2 1 2 2 3 2 2 1 2 3 2 5 4 1 1 3 1 2 3 2 1 1 0 3 7 14 15 15 13 11 12 15 17 16 17 16 16 16 16 19 19 15 14 14 15 15 11 9 10 8 9 8 7 6 5 6
12 10 8 4 3 3 5 5 3 0 1 2 1 1 1 3 5 2 2 1 2 1 0 1 1 1 3 2 1 2 1 2 3 2 2 2 2 1 1 2 3 3 3 1 2 1 3 3 4 4 7 6 3 7 3 11 17 15 13 12 9 11 12 14 15 18 20 19 18 18 17 14 14 16 16 12 11 11 11 11 9 9 9 8 7 5 4
11 8 5 3 2 4 2 1 0 2 1 3 3 5 7 4 3 1 2 1 2 1 0 1 0 1 1 0 1 1 1 2 1 1 2 1 1 1 1 1 3 2 1 1 1 3 2 4 3 4 6 5 7 3 8 12 16 17 17 17 13 11 14 17 18 20 20 19 19 17 16 12 12 17 15 10 9 10 11 10 9 9 10 9 8 6 5
9 4 2 2 2 1 1 2 2 3 3 3 7 10 7 0 3 1 0 0 0 0 1 0 0 2 2 1 1 2 0 1 1 0 0 0 0 0 0 1 1 1 1 2 0 1 0 2 2 2 4 5 3 4 5 10 13 14 15 14 13 13 14 15 19 20 19 17 16 15 16 14 13 11 12 12 10 8 8 11 12 11 12 12 9 8 9
4 5 2 1 1 1 1 1 1 4 12 15 11 4 0 1 1 0 0 0 0 1 0 1 2 3 0 1 0 1 1 0 1 1 0 1 1 1 0 0 2 1 1 1 2 2 2 1 1 2 3 3 5 6 5 7 8 9 10 12 12 14 15 15 17 20 19 20 20 20 18 17 13 11 12 12 11 10 11 10 9 8 9 9 8 8 7
8 2 1 0 1 1 0 1 4 11 7 1 1 0 0 0 0 0 1 1 0 1 1 2 3 1 1 1 2 1 1 1 2 1 0 2 1 1 0 0 1 0 0 0 0 2 1 1 0 1 3 6 5 5 4 5 6 7 8 9 10 11 13 14 15 17 18 16 16 16 15 14 15 15 11 12 10 9 8 8 8 9 9 8 7 6 6
0 0 1 1 1 0 1 5 11 4 0 0 1 0 0 1 1 1 0 1 1 0 1 2 2 0 1 0 1 2 0 1 1 0 0 0 0 1 0 0 0 1 1 1 1 1 1 1 1 0 4 6 7 8 5 5 8 9 9 10 11 11 12 13 13 13 15 18 18 18 19 18 17 15 13 9 9 8 7 7 8 8 7 7 7 7 7
2 1 0 1 1 2 2 4 1 2 1 1 1 0 0 1 1 0 0 1 0 1 1 1 0 0 1 1 1 1 4 3 0 0 1 1 1 1 1 0 0 0 0 0 1 1 1 1 1 3 5 6 7 9 6 4 6 8 8 9 11 11 13 13 14 15 17 18 18 18 18 19 19 16 15 13 6 7 7 7 7 7 7 7 7 7 6
0 0 1 0 2 5 3 0 1 1 1 2 0 1 1 1 0 1 1 1 1 0 3 1 2 2 2 4 3 2 1 2 1 0 1 1 1 2 1 1 0 1 0 2 1 1 1 1 2 2 6 7 7 7 6 5 6 8 9 9 10 11 13 14 15 16 16 16 16 17 17 19 20 17 15 13 8 3 5 7 7 6 7 6 6 6 7
5 3 3 2 2 2 2 1 2 1 0 1 2 2 1 1 1 1 2 1 0 1 2 1 1 1 2 1 2 1 2 1 1 0 0 1 0 0 1 0 0 1 1 0 1 0 1 2 2 3 6 8 7 7 7 5 4 5 6 6 7 8 10 11 12 13 14 15 16 16 17 19 19 18 17 15 14 8 4 2 2 3 3 4 4 5 5
1 2 1 1 1 1 1 1 2 0 2 0 1 1 3 2 5 2 2 2 1 2 3 3 2 3 3 2 2 0 1 0 0 1 1 1 1 1 1 0 0 1 1 1 1 2 0 1 4 4 7 6 7 8 8 6 4 4 6 6 6 7 9 11 13 15 17 16 17 17 18 20 20 19 20 19 16 15 10 7 6 6 8 8 4 2 2
1 1 1 0 0 1 1 2 1 2 2 2 1 1 1 2 3 1 2 2 2 6 5 3 4 4 3 1 1 1 1 1 1 1 2 2 1 1 1 0 1 1 1 0 1 0 1 2 4 4 5 6 7 8 8 7 4 3 5 6 7 8 9 11 13 13 14 14 16 17 17 20 20 20 20 20 18 17 14 12 9 10 11 12 12 12 9
0 1 1 2 4 2 1 0 1 2 1 2 0 1 1 2 1 3 3 1 4 7 7 8 2 6 2 2 1 1 1 2 1 2 2 1 2 0 1 0 1 2 1 0 0 1 1 2 4 5 5 6 6 8 8 8 6 3 3 7 8 9 9 9 9 11 12 13 14 15 16 17 19 20 19 19 19 19 18 17 16 14 13 15 16 15 13
1 1 1 1 1 2 1 2 2 0 0 0 2 4 3 2 1 2 3 3 6 7 7 7 2 5 4 2 1 1 0 1 1 2 1 2 1 0 1 3 1 1 0 1 1 1 2 3 3 4 5 5 6 7 8 8 7 5 3 4 6 7 8 8 9 9 10 12 14 15 15 15 16 17 19 21 20 20 20 20 20 19 17 14 14 15 14
1 1 2 1 2 0 3 1 0 1 2 3 3 3 4 2 4 6 8 4 5 6 6 4 2 3 2 1 1 0 0 0 2 2 1 1 2 2 1 2 0 0 0 0 1 2 2 2 3 4 5 4 5 6 8 8 7 7 4 3 4 6 7 8 8 8 9 10 11 12 13 14 14 16 17 17 19 20 19 19 18 18 17 17 18 17 16
2 0 1 1 1 0 0 1 3 3 3 4 4 5 4 6 5 6 7 5 6 7 6 1 2 1 1 2 1 1 2 2 2 1 2 3 2 1 1 0 1 1 1 1 2 2 2 3 2 3 4 5 5 6 7 8 7 6 6 2 1 3 4 6 7 8 8 8 8 9 11 11 12 12 13 15 17 17 17 18 19 18 17 17 17 16 16
0 2 1 1 2 1 1 2 6 3 3 3 3 4 2 1 6 5 3 5 6 4 6 3 3 3 1 2 2 1 1 2 2 1 2 2 2 2 2 2 1 3 4 2 2 3 2 3 2 3 4 5 5 6 7 7 8 8 6 5 2 1 3 4 5 6 7 8 9 9 9 9 10 11 13 13 11 10 13 16 18 18 17 16 16 16 16
1 1 2 2 1 2 1 1 1 2 2 1 1 2 1 2 3 4 3 1 3 5 4 2 2 1 2 3 2 1 1 1 3 2 1 1 1 1 1 2 2 3 5 4 4 4 3 4 2 3 5 5 5 6 5 6 7 8 7 5 4 3 2 3 4 4 4 5 6 8 10 9 9 9 9 10 10 11 12 15 15 14 15 15 15 15 14
1 2 1 1 1 1 3 2 1 2 3 1 0 1 1 2 3 4 2 3 2 5 3 3 1 1 2 1 1 0 2 2 1 1 2 0 0 0 0 2 3 4 4 4 2 2 2 2 1 2 2 4 5 5 5 6 8 9 9 6 5 6 5 3 3 3 3 3 4 6 7 7 7 7 8 10 11 11 12 11 11 12 12 11 13 14 13
Wind_Direction
337 339 341 343 341 341 343 345 344 343 348 357 351 323 335 349 263 283 306 349 342 341 57 18 20 2 343 342 348 341 26 5 19 351 17 358 67 30 32 1 333 327 326 314 310 1 334 278 232 303 311 295 300 325 329 333 343 343 317 316 277 319 241 280 279 279 257 263 265 278 212 195 201 192 166 182 192 187 186 180 185 186 205 224 286 260 259
336 339 341 340 339 339 342 343 344 341 349 351 330 326 314 292 286 308 321 354 341 45 33 352 350 344 343 353 328 339 11 25 2 351 337 21 37 45 353 352 36 298 295 311 323 28 3 106 318 305 285 292 320 316 322 342 330 345 339 342 341 343 15 17 308 312 283 279 309 256 238 204 203 196 189 191 194 183 156 140 128 184 209 176 151 222 261
337 338 340 338 335 339 340 341 341 341 341 350 354 338 304 274 250 241 328 356 350 51 16 14 346 346 344 338 340 349 344 47 29 20 0 26 62 341 99 294 293 309 344 334 332 348 138 283 255 271 300 293 314 316 324 324 314 308 308 303 328 299 293 317 254 257 198 201 225 235 224 215 199 207 188 189 190 180 146 185 173 190 234 176 185 238 255
335 336 338 335 335 337 339 337 338 337 340 349 349 330 312 337 325 310 344 344 352 73 40 29 355 338 353 340 341 338 337 331 52 25 325 53 351 339 268 220 345 297 353 337 342 325 1 311 305 307 295 315 315 318 318 316 316 307 301 324 356 283 277 231 254 266 264 253 271 281 308 299 224 196 199 185 184 185 182 128 131 193 209 196 223 219 259
333 334 335 331 334 337 334 334 333 335 335 353 332 305 203 292 295 336 352 306 47 17 355 354 355 342 336 311 332 327 323 306 310 43 288 3 343 313 267 288 311 6 359 337 319 317 312 318 294 288 313 313 299 305 299 310 299 332 358 358 326 289 295 271 259 271 275 280 276 277 286 282 270 207 194 182 178 184 190 177 206 168 122 224 247 220 218
332 334 333 333 334 335 333 330 331 329 331 349 340 319 279 329 309 7 51 316 325 357 343 340 327 331 337 304 303 301 328 352 357 342 8 340 21 5 284 342 360 350 10 330 315 321 311 303 293 305 296 310 305 312 309 280 333 3 339 349 341 314 284 280 319 306 300 282 268 275 275 260 270 210 182 190 187 179 193 201 184 146 175 204 241 181 190
330 332 333 331 331 330 330 328 324 323 327 345 29 326 320 271 337 327 32 356 347 329 298 305 325 323 332 305 297 331 353 345 353 341 335 347 331 2 327 325 323 318 319 315 280 326 330 287 282 289 297 296 320 318 328 140 25 2 339 343 358 307 234 289 317 303 293 286 278 263 276 289 331 209 180 188 194 192 184 194 189 182 182 204 218 196 207
329 330 329 328 328 331 327 325 319 316 331 339 314 234 331 4 349 332 17 303 302 292 296 315 322 315 318 315 318 336 338 342 343 350 356 326 309 346 322 321 313 306 312 285 294 313 285 301 301 294 233 279 293 321 229 302 321 1 329 317 10 20 281 326 314 307 292 325 349 327 313 321 359 263 185 188 194 198 181 180 193 212 257 111 116 144 159
327 327 325 325 325 326 320 318 316 311 349 323 330 310 227 305 90 322 325 315 286 286 312 327 317 308 306 286 338 333 332 329 10 322 317 300 340 339 326 324 310 288 292 291 289 294 297 283 280 292 282 273 210 138 244 257 297 319 325 320 314 322 283 312 310 322 301 344 354 327 316 314 65 23 6 45 169 199 183 165 196 161 198 136 126 104 77
327 325 323 323 323 319 318 314 313 313 343 281 281 278 12 343 240 119 157 283 295 303 269 268 304 292 315 328 322 322 310 312 12 334 280 324 336 301 304 305 315 317 325 293 292 311 301 294 293 285 286 286 265 200 237 244 268 290 294 296 292 273 309 320 334 325 283 321 333 321 316 342 33 9 342 336 65 75 61 36 27 16 238 140 133 188 193
323 321 321 321 319 321 320 313 314 308 315 261 254 252 291 261 298 320 178 273 206 222 261 249 214 275 313 312 309 307 307 311 336 334 304 309 300 283 294 306 331 297 277 276 291 279 278 281 282 284 282 275 261 221 211 229 235 248 269 292 280 280 291 302 318 300 295 316 320 311 333 66 110 353 346 14 45 68 71 42 27 14 7 267 284 134 40
322 321 319 318 319 320 318 313 313 302 287 262 253 260 245 229 237 210 245 265 268 179 240 255 245 286 294 298 302 301 304 317 322 330 317 302 294 302 314 313 317 310 279 294 285 285 290 277 265 272 273 268 270 260 229 232 241 232 237 246 268 278 290 285 291 283 299 316 322 275 97 132 227 120 28 6 24 49 72 55 36 15 13 20 6 20 62
319 318 318 319 320 318 316 314 307 299 288 277 256 277 246 205 216 202 208 216 264 243 288 256 247 270 281 286 287 296 315 324 327 327 305 296 312 312 12 341 317 302 308 296 297 306 302 289 298 296 284 283 265 260 252 238 236 233 232 243 251 267 276 294 288 273 289 340 357 141 211 209 12 63 19 7 14 15 14 47 26 19 13 13 4 18 21
319 320 321 322 322 319 317 312 306 294 288 281 267 258 263 237 247 214 191 185 262 203 235 280 261 272 277 299 318 309 314 312 312 314 314 319 304 327 340 314 313 308 302 302 299 297 311 350 325 338 332 317 290 234 238 234 231 229 231 239 241 253 281 303 303 266 324 327 270 230 295 299 7 7 0 355 347 328 9 69 33 14 11 12 356 3 30
321 322 322 322 319 316 314 311 306 295 288 287 269 251 260 244 224 235 193 185 266 269 170 265 272 292 305 297 307 316 308 310 330 323 301 282 291 339 310 318 315 312 310 319 330 340 277 319 328 320 301 2 10 320 315 283 212 219 224 230 249 232 244 261 352 291 14 334 333 354 8 359 325 340 310 315 300 290 276 357 56 9 5 5 357 7 27
323 322 320 320 318 316 314 312 308 302 289 294 278 261 255 244 229 219 199 188 173 278 231 223 248 285 297 296 305 298 296 308 316 291 303 307 309 318 312 319 314 311 332 355 347 354 334 345 331 330 330 322 321 315 328 318 347 199 204 219 231 235 192 243 244 280 319 319 7 320 8 91 346 323 320 313 317 290 265 141 49 360 350 360 357 11 22
321 320 320 319 318 314 313 312 309 300 296 290 264 265 270 189 223 219 220 206 168 237 35 165 186 251 300 299 293 272 298 305 1 339 322 332 324 312 310 326 313 338 357 27 20 18 2 356 293 270 272 290 326 329 304 354 324 0 110 196 229 268 291 56 344 285 260 297 339 250 19 6 328 323 318 313 312 303 211 87 59 343 328 352 358 15 21
319 320 319 317 316 315 313 311 309 306 299 292 279 252 259 198 212 199 223 212 208 277 225 239 248 252 243 223 269 289 296 289 151 214 237 288 296 326 328 329 335 337 2 22 34 24 325 294 345 334 318 320 318 306 18 313 357 359 346 83 158 230 300 329 288 268 279 317 312 60 350 317 336 325 310 311 303 345 66 74 48 315 325 351 5 18 22
319 318 317 317 317 317 316 313 310 308 308 303 297 261 247 234 204 199 225 229 191 253 217 237 205 235 259 275 270 284 275 294 303 307 309 307 262 326 309 301 325 334 5 4 349 22 350 351 295 332 311 317 343 19 320 359 2 335 11 48 28 21 351 331 331 344 312 251 255 185 148 17 336 324 310 316 11 50 79 76 2 339 326 338 7 22 17
319 318 318 320 319 318 315 313 312 313 313 305 289 256 268 218 195 189 210 235 190 260 265 250 226 249 243 264 280 274 284 272 220 250 316 288 330 336 307 348 326 343 329 360 23 344 359 350 334 304 323 332 352 326 324 340 330 22 0 6 51 351 61 339 343 312 322 355 19 38 360 336 343 325 356 9 56 46 38 286 33 4 331 347 12 17 20
318 319 321 322 320 318 317 318 316 316 314 308 308 274 279 221 212 207 204 212 252 281 288 244 239 246 253 252 248 258 263 256 245 272 221 272 318 331 5 346 316 2 344 3 360 345 350 326 342 339 305 314 312 356 358 319 311 3 2 353 71 12 59 344 315 309 330 357 27 60 198 252 320 10 36 320 51 204 257 74 54 27 349 1 8 14 20
321 322 322 321 321 320 320 321 320 317 313 307 312 239 264 233 207 197 201 200 231 234 257 317 323 269 262 255 253 236 232 238 236 222 264 290 183 212 261 278 314 275 240 287 344 318 333 324 301 338 329 311 308 11 338 351 17 350 357 8 63 355 54 106 219 279 74 346 5 321 224 166 181 46 71 331 353 49 43 36 52 51 3 12 29 3 7
324 324 323 323 322 322 323 322 321 320 315 301 301 214 265 318 272 161 170 226 226 260 293 288 287 282 276 257 244 237 231 223 231 222 214 199 293 270 244 226 250 194 199 203 177 233 251 268 268 285 309 356 355 335 351 15 327 7 350 347 262 322 330 344 199 310 311 216 76 14 5 3 167 56 52 39 348 337 35 44 40 47 32 34 31 10 358
325 325 324 324 324 324 324 325 322 321 315 298 274 229 244 222 212 138 193 260 293 306 292 243 29 309 260 276 257 213 216 221 219 217 194 184 224 289 46 155 266 250 226 214 204 173 255 242 248 312 317 350 352 21 359 351 9 342 338 341 348 331 0 11 22 324 354 348 39 13 356 345 36 37 39 34 16 346 352 13 30 64 27 38 58 24 5
325 325 324 323 324 325 327 326 327 324 310 298 284 253 240 252 219 172 190 223 197 132 268 315 242 242 257 253 277 217 203 209 209 211 213 204 199 209 225 239 202 262 280 284 162 328 13 343 326 10 332 355 19 338 316 330 311 344 339 325 337 358 10 73 10 319 346 334 32 358 346 318 55 37 29 5 358 1 355 348 360 35 63 30 88 100 31
325 324 324 326 328 330 331 331 328 317 289 268 253 192 192 242 163 152 177 267 309 271 325 294 281 289 286 305 253 235 178 196 203 207 209 212 209 209 234 267 300 244 223 298 307 311 289 338 268 244 3 292 42 332 301 315 282 294 267 308 353 338 11 22 337 304 309 311 17 1 341 335 322 356 3 5 359 348 344 339 327 360 3 9 8 42 61
325 324 326 328 330 330 329 328 326 314 279 235 222 200 207 251 194 166 182 180 117 353 126 269 272 295 348 318 289 282 205 180 190 216 221 212 203 206 222 254 259 357 16 346 305 344 23 335 342 312 307 9 339 259 313 318 314 303 310 354 8 18 24 352 351 345 339 352 342 360 348 314 318 315 323 337 339 331 330 339 332 325 350 355 359 344 9
326 326 327 329 331 328 327 328 330 326 285 227 212 227 224 230 220 200 227 207 127 180 255 280 306 288 303 269 259 245 260 165 165 206 277 29 43 68 62 41 44 37 358 52 4 2 356 358 315 294 344 342 336 319 320 260 277 336 29 28 31 27 9 5 344 326 296 309 317 318 302 286 278 290 303 310 316 315 313 316 313 308 314 337 352 340 333
324 325 326 327 325 325 326 327 332 342 53 138 145 219 248 237 228 203 204 216 139 146 262 262 277 320 360 310 302 164 186 133 189 185 119 75 60 68 70 70 53 15 354 50 76 28 17 297 293 350 3 294 276 307 340 357 2 319 321 349 9 348 349 335 315 300 278 281 298 299 287 277 284 287 289 292 295 297 297 298 294 264 295 314 341 328 318
322 322 323 322 318 321 329 334 336 329 159 117 188 241 58 58 193 190 200 179 177 149 74 348 7 268 308 298 28 35 29 28 48 52 53 49 48 40 53 56 45 25 93 109 119 49 281 280 335 349 351 332 354 305 319 336 316 293 320 352 338 333 329 323 314 304 294 300 295 289 278 270 269 273 276 276 277 275 275 279 284 289 287 281 281 293 305
317 316 318 317 315 323 337 349 337 294 188 147 222 250 208 348 282 233 160 158 149 105 220 159 236 295 318 293 43 19 27 57 69 85 79 67 62 57 48 80 58 5 59 10 70 168 232 35 314 296 305 353 356 326 345 335 323 308 348 339 331 333 331 322 315 301 295 293 288 281 272 266 265 268 262 256 259 245 245 251 276 305 300 295 290 295 298
312 311 312 313 318 314 314 277 268 205 153 161 195 313 188 216 200 148 141 142 99 67 66 3 335 331 286 4 26 8 32 42 52 59 41 350 61 9 52 38 94 360 25 30 86 44 30 294 280 305 323 325 335 356 332 331 324 324 326 325 323 321 321 316 313 306 298 292 297 297 283 269 222 222 250 234 230 231 238 260 275 282 304 305 295 279 275
309 311 309 309 311 323 320 298 349 76 146 176 163 110 34 62 107 118 120 93 59 210 199 84 196 247 322 270 216 325 357 26 21 20 32 343 38 349 47 4 358 24 348 41 20 48 312 295 268 320 271 268 10 335 279 216 332 318 318 315 315 320 320 310 301 295 291 291 282 269 277 282 262 244 256 281 277 277 277 273 272 277 281 289 292 286 271
307 307 311 308 304 272 201 164 163 106 86 49 323 320 291 356 24 129 151 126 153 240 82 111 337 3 287 31 47 298 331 84 332 357 43 350 346 41 37 2 340 37 337 46 312 12 305 339 354 273 262 22 224 210 16 328 332 328 325 321 313 313 314 310 311 314 311 304 294 275 268 269 270 260 255 251 259 254 252 254 251 252 249 243 249 271 284
305 302 301 309 279 221 169 146 81 100 176 231 142 270 176 302 259 195 125 136 67 359 24 302 136 37 348 352 56 274 293 63 12 347 89 295 337 102 334 56 340 54 309 238 4 12 338 6 298 11 356 292 2 35 347 319 323 326 325 323 317 304 303 321 322 320 314 309 297 292 286 272 261 260 254 244 239 247 242 242 235 234 243 228 210 218 249
299 298 300 293 236 173 135 86 213 144 245 211 200 160 171 222 263 265 132 93 127 161 114 244 58 242 155 336 293 275 83 55 265 4 51 178 359 4 76 103 42 323 288 14 34 325 9 316 20 7 311 19 28 318 312 325 337 338 341 340 326 320 336 329 322 322 317 303 295 306 303 271 250 256 262 251 233 227 226 236 233 222 233 235 217 198 194
280 287 37 103 116 95 206 224 166 173 232 147 130 138 140 151 269 285 349 237 322 112 151 88 37 260 161 215 226 282 90 342 141 62 341 88 173 237 62 53 115 217 60 334 270 284 349 357 69 346 356 22 308 258 296 345 345 345 345 339 337 337 337 334 334 331 317 311 321 339 342 319 271 257 259 255 244 227 217 225 225 221 222 224 218 202 199
141 110 120 91 67 9 285 189 201 156 112 116 128 106 335 259 58 296 294 312 265 142 310 90 230 252 233 94 302 245 80 244 125 146 320 205 78 304 276 121 216 160 325 303 265 110 120 65 76 37 296 257 255 270 308 346 347 342 342 342 340 340 337 334 337 343 342 342 346 341 333 335 321 273 255 257 245 237 226 226 225 225 230 226 221 209 194
111 107 94 88 98 270 271 238 144 126 95 61 334 67 83 76 56 330 243 188 72 315 251 134 257 212 150 77 277 261 168 176 211 195 155 250 119 303 171 85 270 129 292 358 312 119 354 342 107 74 1 336 334 309 309 329 337 341 344 348 346 344 340 336 340 346 345 338 325 318 326 328 325 316 272 249 248 237 233 223 222 220 223 225 219 205 195
13 79 173 139 230 271 14 135 143 118 113 67 199 121 299 162 94 296 246 9 335 242 122 288 223 142 67 176 206 304 247 52 342 291 182 300 162 152 257 67 240 90 349 5 242 134 112 30 299 29 360 340 324 311 317 330 342 348 354 351 349 346 341 341 341 344 343 346 346 343 345 343 342 333 318 265 240 243 236 230 228 225 217 217 207 198 201
223 240 7 97 131 135 139 153 282 16 235 214 185 256 142 333 237 210 53 4 251 259 190 206 317 75 207 213 159 219 310 4 290 128 132 184 246 74 84 99 271 77 332 296 230 110 71 90 359 25 336 315 312 311 315 325 340 344 358 354 352 351 348 346 350 351 354 355 354 351 349 349 347 340 334 327 263 227 230 230 231 228 222 217 214 206 194
56 97 156 322 78 89 92 95 234 247 243 204 123 284 196 193 48 15 119 118 270 296 289 185 287 229 228 181 197 156 236 196 178 82 68 337 256 134 204 167 80 104 119 245 162 50 65 22 351 329 311 314 310 309 316 327 342 350 357 358 355 354 352 352 351 356 358 358 355 356 355 355 356 353 342 335 324 260 226 227 233 234 230 221 202 183 167
318 151 149 149 160 176 168 340 242 143 85 341 43 358 348 43 256 199 273 260 358 107 247 73 183 85 329 315 312 204 186 193 94 329 72 250 353 43 122 29 79 19 237 247 65 43 34 334 335 319 318 317 317 317 317 323 314 326 341 358 360 357 355 355 357 357 360 0 360 2 360 2 1 358 356 356 360 1 2 344 247 223 217 198 182 165 159
172 120 100 151 84 259 162 331 216 27 342 21 92 5 344 6 325 1 7 293 211 272 226 202 226 151 266 193 160 186 52 4 101 102 284 244 142 206 113 53 211 223 79 34 42 54 323 59 18 315 308 316 328 331 323 324 324 322 344 350 358 1 0 4 6 8 6 4 6 6 10 8 6 5 6 7 4 10 15 12 15 46 40 38 26 29 98
97 351 30 27 351 262 56 311 330 89 360 307 46 12 4 23 311 356 349 264 143 274 283 211 155 183 225 233 71 257 146 179 56 98 241 183 254 350 87 245 274 63 83 30 350 272 28 358 331 319 320 322 320 326 326 321 325 328 332 345 357 10 11 13 14 15 11 9 9 8 13 11 11 11 12 11 11 14 18 24 32 47 55 61 52 41 31
97 224 70 59 322 311 112 248 357 24 350 58 3 301 4 313 344 302 264 311 304 306 316 304 202 185 224 194 149 207 190 124 88 231 233 220 107 314 251 273 56 54 27 33 343 286 284 261 291 296 300 304 318 325 326 320 323 329 345 3 354 3 14 21 19 18 15 12 10 13 14 17 17 14 13 15 18 19 22 29 41 48 55 68 73 69 54
356 344 88 122 87 279 60 33 359 325 227 239 338 12 18 329 280 315 302 325 311 300 301 292 223 167 146 185 227 347 197 195 201 297 27 38 79 206 63 86 31 2 341 285 309 301 298 288 281 283 300 314 327 329 326 325 326 344 349 351 357 5 9 22 23 23 19 19 20 21 19 17 21 19 18 21 20 22 23 27 36 43 49 51 57 64 65
265 247 88 75 255 288 32 309 262 19 17 78 18 26 11 23 26 341 318 308 291 327 337 346 354 347 17 314 85 210 27 62 55 324 348 324 13 40 18 36 15 39 132 240 283 255 258 265 275 301 305 321 325 330 331 328 329 343 348 356 0 13 14 20 25 25 19 22 25 26 24 18 19 26 27 22 24 25 23 27 33 38 42 48 51 52 53
162 117 142 197 209 123 233 266 63 47 326 2 23 35 27 24 335 300 303 327 347 335 305 354 350 48 322 272 86 41 4 316 69 312 13 19 56 27 337 266 293 315 12 347 290 309 297 307 326 300 309 334 338 340 333 326 328 342 339 342 9 8 9 17 24 25 26 26 27 30 32 27 22 25 27 26 29 28 25 28 32 36 36 41 46 49 51
77 334 14 38 17 324 286 61 59 3 322 348 15 3 355 31 332 295 302 359 329 335 345 358 359 78 301 44 357 2 44 350 72 27 53 45 14 8 347 346 20 334 296 315 318 292 270 277 272 316 339 340 346 342 334 329 340 349 342 340 16 33 24 22 21 23 28 32 33 34 33 34 31 27 25 25 24 25 30 36 35 33 34 37 43 46 47
346 130 223 179 153 222 107 75 293 287 323 334 329 346 357 313 299 291 305 11 358 20 24 16 312 44 13 13 28 20 346 58 61 41 91 68 337 33 359 324 271 247 260 254 224 251 243 269 326 7 346 347 337 333 331 329 348 357 352 342 355 26 2 359 13 25 33 31 32 41 41 40 37 36 34 29 30 39 43 41 41 39 37 34 36 40 42
30 17 328 304 340 67 144 174 137 170 181 194 138 268 105 351 296 277 307 72 45 54 355 310 44 23 50 42 275 247 345 46 53 40 43 59 3 90 186 216 242 246 254 289 291 298 322 302 356 12 338 333 339 332 331 349 0 5 3 351 352 8 11 353 345 14 31 44 47 47 47 43 43 45 51 51 42 39 45 45 41 42 45 46 44 41 39